星链-30903 (STARLINK-30903 )

导读

STARLINK-30903是美国SpaceX公司星链星座中的低轨通信卫星,于2023年11月18日发射。星链星座旨在为全球提供宽带互联网服务,该卫星采用平板设计,配备太阳电池阵与氪工质霍尔推进器,支持Ku/Ka波段通信,具备自主避撞能力,设计寿命5至7年,退役后将主动离轨并在大气层中烧毁。

基本信息
目录编号:
58355
目录名称:
STARLINK-30903
国际标识:
2023-177E
轨道中心:
EARTH
卫星名称:
星链-30903
卫星全名:
星链-30903 (STARLINK-30903 )
卫星状态:
在轨 (已飞行1021 天)
发射日期:
2023-11-18 UTC
国别 :
美国 (US)
星等 :
--
轨道信息
数据来源 国际轨道数据
星历时间: 2026-09-04T05:25:21+0800
14小时前
查看轨道信息
半长轴: 6861.201km
偏心率: 0.0001807
轨道倾角: 43.005°
近地点辐角 269.234°
升交点赤经 64.008°
平近点角 90.831°
近地点: 481.824km
远地点: 484.304km
周期: 94.267分钟
每日圈数: 15.275751
详细信息
固有亮度:
5
最大亮度:
0.3
卫星平台:
Starlink v2.0 mini
覆盖范围:
全球
运营商:
太空探索技术公司
运营商所在国:
美国
制造商(研发单位):
太空探索技术公司
制造商所在国:
美国
使用方式:
暂无
卫星简介
星链(Starlink)计划是由太空探索技术公司(SpaceX)提出的一个巨型低轨卫星互联网星座项目,计划在2019年至2024年间在太空搭建由约1.2万颗卫星组成的“星链”网络,其中1584颗将部署在地球上空550千米处的近地轨道,并从2020年开始工作。该卫星仍在工作。
2D轨道图
3D轨道图
轨道高度分析图
轨道倾角分析图
轨道综合分析图
查看轨道综合分析图
交会数据列表
事件ID 空间交会对象 最接近时刻(TCA) 交会距离 交会风险概率(CRP) 交会风险指数(CRI) 操作
CDM_260906-091005-835506-634521
2026-09-06T
09:10:33+0000
0.241 km
中距离
5.668572E-4 高风险 0.9
CDM_260830-211105-835506-666921
SARI-2 (66669)
2026-08-30T
21:11:16+0000
1.753 km
极远距离
3.839766E-6 低风险 0.47
CDM_260906-073605-835506-634521
2026-09-06T
07:36:24+0000
1.681 km
极远距离
3.538987E-6 低风险 0.46
CDM_260904-222905-293905-835522
POEM (52939)
2026-09-04T
22:29:04+0000
1.738 km
极远距离
2.448657E-6 低风险 0.43
CDM_260906-223905-835506-652721
2026-09-06T
22:39:46+0000
1.730 km
极远距离
2.419161E-6 低风险 0.43
CDM_260906-104405-835506-634521
2026-09-06T
10:44:42+0000
2.182 km
极远距离
1.78975E-6 低风险 0.4
CDM_260904-220405-321005-835521
2026-09-04T
22:04:37+0000
2.595 km
极远距离
1.501912E-6 低风险 0.39
CDM_260905-174205-835506-767621
2026-09-05T
17:42:03+0000
2.741 km
极远距离
1.369169E-6 低风险 0.38